TimeEST,TemperatureF,Dew PointF,Humidity,Sea Level PressureIn,VisibilityMPH,Wind Direction,Wind SpeedMPH,Gust SpeedMPH,PrecipitationIn,Events,Conditions,WindDirDegrees,DateUTC
12:51 AM,41.0,37.9,89,30.34,8.0,ENE,5.8,-,N/A,,Clear,70,2012-11-14 05:51:00
1:51 AM,41.0,36.0,82,30.33,8.0,ENE,8.1,-,N/A,,Clear,70,2012-11-14 06:51:00
2:51 AM,39.9,33.1,77,30.34,8.0,ENE,9.2,-,N/A,,Clear,60,2012-11-14 07:51:00
3:51 AM,39.9,32.0,73,30.35,8.0,ENE,8.1,-,N/A,,Clear,60,2012-11-14 08:51:00
4:51 AM,39.0,30.0,70,30.35,9.0,ENE,11.5,-,N/A,,Clear,70,2012-11-14 09:51:00
5:51 AM,39.0,30.0,70,30.37,9.0,ENE,9.2,-,N/A,,Clear,70,2012-11-14 10:51:00
6:51 AM,39.0,30.9,73,30.38,8.0,ENE,11.5,17.3,N/A,,Partly Cloudy,60,2012-11-14 11:51:00
7:51 AM,39.9,30.9,70,30.40,7.0,ENE,11.5,-,N/A,,Mostly Cloudy,70,2012-11-14 12:51:00
8:51 AM,42.1,30.9,65,30.42,7.0,ENE,11.5,26.5,N/A,,Overcast,60,2012-11-14 13:51:00
9:51 AM,45.0,30.9,58,30.43,7.0,ENE,11.5,19.6,N/A,,Mostly Cloudy,70,2012-11-14 14:51:00
10:51 AM,46.0,28.9,51,30.42,8.0,ENE,16.1,20.7,N/A,,Mostly Cloudy,70,2012-11-14 15:51:00
11:51 AM,48.9,30.0,48,30.39,8.0,NE,13.8,19.6,N/A,,Overcast,50,2012-11-14 16:51:00
12:51 PM,51.8,30.2,44,30.34,8.0,NE,12.7,19.6,N/A,,Scattered Clouds,50,2012-11-14 17:51:00
1:51 PM,54.0,32.0,43,30.31,8.0,ENE,11.5,19.6,N/A,,Overcast,70,2012-11-14 18:51:00
2:17 PM,51.8,30.2,44,30.30,8.0,NE,11.5,16.1,N/A,,Mostly Cloudy,50,2012-11-14 19:17:00
2:51 PM,52.0,32.0,47,30.31,8.0,East,10.4,-,N/A,,Overcast,80,2012-11-14 19:51:00
3:51 PM,52.0,32.0,47,30.31,8.0,East,8.1,-,N/A,,Overcast,80,2012-11-14 20:51:00
4:51 PM,51.8,33.8,50,30.29,8.0,East,5.8,-,N/A,,Overcast,90,2012-11-14 21:51:00
5:51 PM,50.0,33.1,52,30.32,9.0,Calm,Calm,-,N/A,,Overcast,0,2012-11-14 22:51:00
6:51 PM,50.0,33.1,52,30.31,9.0,ENE,10.4,-,N/A,,Overcast,70,2012-11-14 23:51:00
7:51 PM,48.9,33.1,54,30.33,8.0,ENE,11.5,16.1,0.00,,Overcast,70,2012-11-15 00:51:00
8:51 PM,48.0,35.1,61,30.33,8.0,ENE,6.9,-,0.00,,Overcast,60,2012-11-15 01:51:00
9:51 PM,48.0,34.0,58,30.32,8.0,NE,5.8,-,N/A,,Overcast,40,2012-11-15 02:51:00
10:51 PM,48.0,34.0,58,30.31,8.0,NE,9.2,-,N/A,,Overcast,50,2012-11-15 03:51:00
11:51 PM,45.0,35.1,68,30.31,8.0,East,11.5,-,0.00,,Overcast,90,2012-11-15 04:51:00